QPF
0.00 0.00 0.00 0.00 0.00 0.00 0.00 0.00 0.00 0.00 0.00 0.00 0.00 0.00 0.00 0.00 0.00 0.00 0.00 0.00 0.00 0.00 0.01 0.00 0.00 0.00 0.00 0.00 0.00 0.00 0.00 0.00 0.00 0.00 0.00 0.00 0.00 0.00 0.00 0.00 0.00 0.00 0.00
0.00 0.00 0.00 0.00 0.00 0.00 0.00 0.00 0.00 0.00 0.00 0.00 0.00 0.00 0.00 0.00 0.00 0.00 0.00 0.00 0.00 0.00 0.01 0.01 0.01 0.00 0.00 0.00 0.00 0.00 0.00 0.00 0.00 0.00 0.00 0.00 0.00 0.00 0.00 0.00 0.00 0.00 0.00
0.00 0.00 0.00 0.00 0.00 0.00 0.00 0.00 0.00 0.00 0.00 0.00 0.00 0.00 0.00 0.00 0.00 0.00 0.00 0.00 0.00 0.00 0.00 0.01 0.01 0.01 0.01 0.01 0.00 0.00 0.00 0.00 0.00 0.00 0.00 0.00 0.00 0.00 0.00 0.00 0.00 0.00 0.00
0.00 0.00 0.00 0.00 0.00 0.00 0.00 0.00 0.00 0.00 0.00 0.00 0.00 0.00 0.00 0.00 0.00 0.00 0.00 0.00 0.00 0.00 0.00 0.01 0.01 0.01 0.01 0.01 0.01 0.01 0.00 0.00 0.00 0.00 0.00 0.00 0.00 0.00 0.00 0.00 0.00 0.00 0.00
0.00 0.00 0.00 0.00 0.00 0.00 0.00 0.00 0.00 0.00 0.00 0.00 0.00 0.00 0.00 0.00 0.00 0.00 0.00 0.00 0.00 0.00 0.00 0.00 0.01 0.01 0.01 0.01 0.02 0.02 0.01 0.00 0.00 0.00 0.00 0.00 0.00 0.00 0.00 0.00 0.00 0.00 0.00
0.00 0.00 0.00 0.00 0.00 0.00 0.00 0.00 0.00 0.00 0.00 0.00 0.00 0.00 0.00 0.00 0.00 0.00 0.00 0.00 0.00 0.00 0.00 0.00 0.00 0.00 0.01 0.02 0.02 0.02 0.03 0.02 0.01 0.00 0.00 0.00 0.00 0.00 0.00 0.00 0.00 0.00 0.00
0.00 0.00 0.00 0.00 0.00 0.00 0.00 0.01 0.01 0.01 0.01 0.01 0.00 0.00 0.00 0.00 0.00 0.00 0.00 0.00 0.00 0.00 0.00 0.00 0.01 0.01 0.01 0.02 0.03 0.04 0.04 0.03 0.02 0.01 0.01 0.01 0.00 0.00 0.00 0.00 0.00 0.00 0.00
0.01 0.01 0.01 0.01 0.02 0.01 0.01 0.01 0.01 0.01 0.01 0.01 0.01 0.01 0.00 0.00 0.00 0.00 0.00 0.00 0.01 0.01 0.01 0.01 0.01 0.01 0.02 0.02 0.02 0.04 0.04 0.05 0.05 0.04 0.03 0.02 0.01 0.01 0.01 0.01 0.01 0.01 0.01
0.02 0.02 0.01 0.01 0.02 0.02 0.01 0.01 0.02 0.02 0.02 0.02 0.02 0.03 0.02 0.01 0.00 0.00 0.00 0.01 0.01 0.01 0.01 0.02 0.02 0.03 0.03 0.03 0.03 0.04 0.05 0.06 0.07 0.08 0.07 0.05 0.04 0.03 0.03 0.03 0.03 0.02 0.01
0.03 0.02 0.02 0.02 0.02 0.02 0.02 0.02 0.03 0.03 0.03 0.03 0.02 0.02 0.02 0.01 0.01 0.01 0.00 0.00 0.01 0.01 0.02 0.02 0.03 0.03 0.03 0.04 0.04 0.07 0.09 0.11 0.12 0.15 0.15 0.13 0.11 0.10 0.09 0.07 0.06 0.05 0.05
0.02 0.02 0.02 0.02 0.02 0.01 0.02 0.02 0.02 0.02 0.02 0.02 0.02 0.02 0.02 0.02 0.02 0.03 0.02 0.00 0.01 0.02 0.02 0.03 0.03 0.04 0.05 0.06 0.09 0.12 0.16 0.18 0.21 0.25 0.27 0.28 0.25 0.20 0.16 0.14 0.12 0.10 0.08
0.01 0.01 0.01 0.01 0.01 0.01 0.01 0.01 0.02 0.02 0.03 0.03 0.03 0.03 0.03 0.02 0.02 0.03 0.03 0.02 0.02 0.02 0.03 0.04 0.05 0.06 0.08 0.10 0.13 0.17 0.19 0.21 0.24 0.28 0.30 0.32 0.31 0.27 0.22 0.17 0.14 0.11 0.08
0.01 0.01 0.01 0.01 0.01 0.01 0.01 0.01 0.01 0.01 0.01 0.02 0.02 0.03 0.03 0.02 0.02 0.03 0.03 0.02 0.02 0.02 0.03 0.03 0.04 0.05 0.07 0.09 0.12 0.16 0.19 0.23 0.27 0.31 0.35 0.37 0.35 0.28 0.22 0.18 0.14 0.11 0.09
0.01 0.01 0.02 0.01 0.01 0.01 0.01 0.01 0.01 0.01 0.01 0.01 0.02 0.02 0.03 0.03 0.03 0.03 0.03 0.03 0.03 0.02 0.02 0.02 0.03 0.04 0.05 0.07 0.11 0.15 0.16 0.20 0.22 0.25 0.28 0.30 0.29 0.25 0.21 0.17 0.15 0.12 0.10
0.01 0.01 0.01 0.01 0.01 0.01 0.00 0.00 0.00 0.01 0.01 0.01 0.01 0.01 0.02 0.02 0.02 0.02 0.02 0.02 0.03 0.03 0.02 0.02 0.02 0.03 0.04 0.06 0.10 0.12 0.12 0.16 0.18 0.18 0.19 0.19 0.19 0.18 0.16 0.14 0.12 0.10 0.08
0.00 0.00 0.01 0.01 0.01 0.01 0.00 0.00 0.00 0.00 0.00 0.00 0.00 0.00 0.01 0.00 0.00 0.01 0.01 0.01 0.01 0.02 0.01 0.01 0.01 0.02 0.03 0.04 0.07 0.07 0.08 0.12 0.12 0.13 0.14 0.15 0.15 0.13 0.11 0.10 0.08 0.07 0.05
0.00 0.00 0.00 0.00 0.00 0.00 0.00 0.00 0.00 0.00 0.00 0.00 0.00 0.00 0.00 0.00 0.00 0.00 0.00 0.00 0.01 0.01 0.01 0.01 0.01 0.01 0.02 0.03 0.04 0.04 0.05 0.06 0.07 0.09 0.09 0.10 0.09 0.08 0.07 0.06 0.05 0.04 0.03
0.00 0.00 0.00 0.00 0.00 0.00 0.00 0.00 0.00 0.00 0.00 0.00 0.00 0.00 0.00 0.00 0.00 0.00 0.00 0.00 0.00 0.01 0.01 0.01 0.01 0.01 0.02 0.02 0.03 0.03 0.03 0.03 0.03 0.05 0.06 0.06 0.06 0.05 0.04 0.04 0.03 0.02 0.02
0.00 0.00 0.00 0.00 0.00 0.00 0.00 0.00 0.00 0.00 0.00 0.00 0.00 0.00 0.00 0.00 0.00 0.00 0.00 0.00 0.00 0.00 0.01 0.01 0.01 0.01 0.02 0.02 0.02 0.02 0.02 0.02 0.02 0.02 0.03 0.03 0.03 0.02 0.02 0.02 0.01 0.01 0.01
0.00 0.00 0.00 0.00 0.00 0.00 0.00 0.00 0.00 0.00 0.00 0.00 0.00 0.00 0.00 0.00 0.00 0.00 0.00 0.00 0.00 0.00 0.00 0.00 0.01 0.01 0.01 0.01 0.01 0.01 0.02 0.02 0.01 0.01 0.01 0.01 0.01 0.01 0.01 0.01 0.01 0.00 0.00
0.00 0.00 0.00 0.00 0.00 0.00 0.00 0.00 0.00 0.00 0.00 0.00 0.00 0.00 0.00 0.00 0.00 0.00 0.00 0.00 0.00 0.00 0.00 0.00 0.00 0.01 0.01 0.01 0.01 0.01 0.01 0.01 0.01 0.01 0.01 0.01 0.01 0.00 0.00 0.00 0.00 0.00 0.00
0.00 0.00 0.00 0.00 0.00 0.00 0.00 0.00 0.00 0.00 0.00 0.00 0.00 0.00 0.00 0.00 0.00 0.00 0.00 0.00 0.00 0.00 0.00 0.00 0.00 0.00 0.00 0.00 0.00 0.00 0.01 0.01 0.01 0.00 0.00 0.00 0.00 0.00 0.00 0.00 0.00 0.00 0.00
0.00 0.00 0.00 0.00 0.00 0.00 0.00 0.00 0.00 0.00 0.00 0.00 0.00 0.00 0.00 0.00 0.00 0.00 0.00 0.00 0.00 0.00 0.00 0.00 0.00 0.00 0.00 0.00 0.00 0.00 0.00 0.00 0.00 0.00 0.00 0.00 0.00 0.00 0.00 0.00 0.00 0.00 0.00
0.00 0.00 0.00 0.00 0.00 0.00 0.00 0.00 0.00 0.00 0.00 0.00 0.00 0.00 0.00 0.00 0.00 0.00 0.00 0.00 0.00 0.00 0.00 0.00 0.00 0.00 0.00 0.00 0.00 0.00 0.00 0.00 0.00 0.00 0.00 0.00 0.00 0.00 0.00 0.00 0.00 0.00 0.00
0.00 0.00 0.00 0.00 0.00 0.00 0.00 0.00 0.00 0.00 0.00 0.00 0.00 0.00 0.00 0.00 0.00 0.00 0.00 0.00 0.00 0.00 0.00 0.00 0.00 0.00 0.00 0.00 0.00 0.00 0.00 0.00 0.00 0.00 0.00 0.00 0.00 0.00 0.00 0.00 0.00 0.00 0.00
0.00 0.00 0.00 0.00 0.00 0.00 0.00 0.00 0.00 0.00 0.00 0.00 0.00 0.00 0.00 0.00 0.00 0.00 0.00 0.00 0.00 0.00 0.00 0.00 0.00 0.00 0.00 0.00 0.00 0.00 0.00 0.00 0.00 0.00 0.00 0.00 0.00 0.00 0.00 0.00 0.00 0.00 0.00
MSLP
1020.75 1020.93 1021.07 1021.21 1021.35 1021.52 1021.70 1021.92 1022.15 1022.37 1022.58 1022.75 1022.87 1022.96 1023.01 1023.03 1023.04 1023.06 1023.09 1023.13 1023.19 1023.27 1023.36 1023.46 1023.55 1023.65 1023.74 1023.83 1023.92 1024.02 1024.13 1024.24 1024.35 1024.45 1024.54 1024.61 1024.66 1024.68 1024.67 1024.63 1024.59 1024.53 1024.48
1020.64 1020.82 1020.98 1021.14 1021.30 1021.47 1021.67 1021.88 1022.10 1022.32 1022.51 1022.67 1022.78 1022.85 1022.89 1022.89 1022.88 1022.88 1022.88 1022.91 1022.96 1023.04 1023.13 1023.24 1023.35 1023.47 1023.59 1023.71 1023.83 1023.97 1024.11 1024.25 1024.41 1024.55 1024.68 1024.79 1024.86 1024.89 1024.89 1024.85 1024.79 1024.72 1024.65
1020.43 1020.64 1020.84 1021.02 1021.22 1021.42 1021.62 1021.84 1022.05 1022.25 1022.42 1022.56 1022.66 1022.71 1022.72 1022.71 1022.67 1022.64 1022.62 1022.62 1022.65 1022.71 1022.79 1022.90 1023.03 1023.16 1023.31 1023.46 1023.62 1023.79 1023.98 1024.18 1024.38 1024.58 1024.77 1024.92 1025.03 1025.09 1025.10 1025.07 1025.00 1024.91 1024.83
1020.14 1020.39 1020.62 1020.86 1021.09 1021.32 1021.55 1021.77 1021.97 1022.15 1022.30 1022.41 1022.48 1022.52 1022.51 1022.48 1022.43 1022.37 1022.32 1022.30 1022.30 1022.34 1022.41 1022.51 1022.63 1022.77 1022.93 1023.11 1023.30 1023.51 1023.74 1023.99 1024.25 1024.51 1024.76 1024.97 1025.14 1025.24 1025.28 1025.26 1025.19 1025.09 1024.99
1019.78 1020.06 1020.33 1020.61 1020.89 1021.15 1021.39 1021.61 1021.80 1021.96 1022.09 1022.18 1022.24 1022.26 1022.25 1022.21 1022.15 1022.09 1022.02 1021.98 1021.96 1021.98 1022.03 1022.11 1022.22 1022.36 1022.52 1022.70 1022.90 1023.13 1023.40 1023.68 1024.00 1024.32 1024.64 1024.92 1025.14 1025.30 1025.38 1025.39 1025.33 1025.24 1025.12
1019.34 1019.64 1019.95 1020.26 1020.57 1020.85 1021.11 1021.33 1021.51 1021.66 1021.77 1021.86 1021.91 1021.93 1021.93 1021.90 1021.85 1021.80 1021.74 1021.69 1021.67 1021.67 1021.70 1021.77 1021.86 1021.98 1022.12 1022.29 1022.48 1022.71 1022.98 1023.29 1023.64 1024.01 1024.38 1024.73 1025.02 1025.24 1025.38 1025.43 1025.40 1025.32 1025.21
1018.84 1019.13 1019.45 1019.78 1020.11 1020.41 1020.67 1020.89 1021.07 1021.21 1021.32 1021.41 1021.47 1021.52 1021.54 1021.55 1021.53 1021.51 1021.48 1021.45 1021.44 1021.44 1021.47 1021.52 1021.59 1021.69 1021.80 1021.93 1022.09 1022.29 1022.54 1022.85 1023.20 1023.60 1024.01 1024.41 1024.76 1025.05 1025.25 1025.36 1025.38 1025.33 1025.23
1018.30 1018.58 1018.89 1019.21 1019.53 1019.82 1020.08 1020.30 1020.48 1020.63 1020.75 1020.85 1020.94 1021.02 1021.09 1021.15 1021.19 1021.22 1021.23 1021.24 1021.26 1021.29 1021.33 1021.38 1021.44 1021.50 1021.57 1021.66 1021.77 1021.92 1022.12 1022.39 1022.72 1023.12 1023.55 1023.98 1024.39 1024.75 1025.02 1025.19 1025.27 1025.26 1025.20
1017.79 1018.03 1018.30 1018.59 1018.89 1019.16 1019.41 1019.62 1019.80 1019.95 1020.09 1020.22 1020.35 1020.48 1020.61 1020.72 1020.83 1020.91 1020.99 1021.06 1021.12 1021.19 1021.26 1021.32 1021.38 1021.43 1021.46 1021.50 1021.55 1021.63 1021.77 1021.97 1022.26 1022.63 1023.05 1023.51 1023.96 1024.37 1024.70 1024.94 1025.08 1025.13 1025.11
1017.39 1017.57 1017.78 1018.03 1018.27 1018.51 1018.73 1018.93 1019.10 1019.27 1019.43 1019.59 1019.76 1019.94 1020.12 1020.29 1020.45 1020.60 1020.74 1020.87 1020.99 1021.11 1021.22 1021.31 1021.38 1021.43 1021.44 1021.43 1021.43 1021.44 1021.50 1021.64 1021.87 1022.19 1022.59 1023.05 1023.52 1023.97 1024.35 1024.65 1024.85 1024.96 1024.98
1017.17 1017.28 1017.44 1017.61 1017.80 1017.99 1018.16 1018.33 1018.50 1018.67 1018.84 1019.03 1019.24 1019.45 1019.67 1019.88 1020.09 1020.29 1020.48 1020.67 1020.85 1021.02 1021.18 1021.32 1021.42 1021.47 1021.48 1021.45 1021.40 1021.36 1021.36 1021.42 1021.59 1021.86 1022.22 1022.66 1023.13 1023.60 1024.02 1024.37 1024.61 1024.76 1024.83
1017.19 1017.24 1017.33 1017.43 1017.55 1017.67 1017.80 1017.94 1018.08 1018.24 1018.42 1018.62 1018.84 1019.08 1019.32 1019.56 1019.79 1020.02 1020.24 1020.47 1020.70 1020.92 1021.13 1021.32 1021.46 1021.55 1021.57 1021.54 1021.47 1021.39 1021.33 1021.35 1021.45 1021.66 1021.98 1022.39 1022.85 1023.31 1023.75 1024.12 1024.39 1024.57 1024.66
1017.47 1017.47 1017.49 1017.53 1017.57 1017.63 1017.70 1017.79 1017.91 1018.05 1018.22 1018.42 1018.65 1018.89 1019.13 1019.37 1019.60 1019.84 1020.08 1020.33 1020.59 1020.85 1021.11 1021.34 1021.53 1021.65 1021.71 1021.69 1021.62 1021.52 1021.44 1021.41 1021.47 1021.63 1021.90 1022.26 1022.69 1023.13 1023.55 1023.92 1024.20 1024.39 1024.49
1017.97 1017.94 1017.91 1017.88 1017.85 1017.85 1017.86 1017.91 1017.99 1018.12 1018.28 1018.47 1018.68 1018.91 1019.14 1019.37 1019.59 1019.82 1020.05 1020.30 1020.57 1020.86 1021.15 1021.41 1021.64 1021.81 1021.90 1021.91 1021.85 1021.76 1021.67 1021.62 1021.64 1021.76 1021.98 1022.29 1022.66 1023.06 1023.45 1023.78 1024.04 1024.21 1024.31
1018.63 1018.57 1018.50 1018.42 1018.35 1018.29 1018.26 1018.27 1018.33 1018.43 1018.58 1018.76 1018.97 1019.18 1019.40 1019.60 1019.80 1020.01 1020.22 1020.46 1020.72 1021.01 1021.30 1021.59 1021.85 1022.04 1022.16 1022.20 1022.18 1022.10 1022.01 1021.95 1021.95 1022.03 1022.20 1022.45 1022.76 1023.09 1023.42 1023.70 1023.91 1024.05 1024.12
1019.32 1019.26 1019.17 1019.06 1018.96 1018.87 1018.81 1018.80 1018.84 1018.94 1019.09 1019.27 1019.47 1019.68 1019.88 1020.07 1020.25 1020.43 1020.62 1020.82 1021.06 1021.33 1021.62 1021.91 1022.17 1022.38 1022.52 1022.58 1022.58 1022.53 1022.45 1022.38 1022.36 1022.41 1022.52 1022.71 1022.94 1023.20 1023.45 1023.66 1023.81 1023.90 1023.94
1019.94 1019.89 1019.81 1019.70 1019.59 1019.50 1019.45 1019.44 1019.48 1019.59 1019.74 1019.94 1020.15 1020.36 1020.56 1020.74 1020.91 1021.06 1021.22 1021.40 1021.61 1021.84 1022.10 1022.36 1022.61 1022.81 1022.96 1023.04 1023.05 1023.01 1022.94 1022.88 1022.84 1022.85 1022.92 1023.04 1023.19 1023.36 1023.51 1023.64 1023.72 1023.75 1023.74
1020.43 1020.40 1020.34 1020.26 1020.18 1020.11 1020.08 1020.09 1020.17 1020.30 1020.48 1020.69 1020.93 1021.16 1021.36 1021.55 1021.71 1021.85 1021.98 1022.13 1022.29 1022.49 1022.70 1022.93 1023.14 1023.33 1023.46 1023.54 1023.56 1023.53 1023.47 1023.40 1023.35 1023.33 1023.35 1023.39 1023.46 1023.54 1023.60 1023.63 1023.63 1023.60 1023.55
1020.76 1020.77 1020.75 1020.72 1020.68 1020.66 1020.67 1020.73 1020.84 1021.01 1021.23 1021.47 1021.73 1021.97 1022.20 1022.39 1022.54 1022.67 1022.79 1022.90 1023.03 1023.18 1023.35 1023.53 1023.70 1023.85 1023.97 1024.04 1024.06 1024.03 1023.98 1023.91 1023.85 1023.80 1023.76 1023.75 1023.73 1023.72 1023.68 1023.63 1023.55 1023.46 1023.36
1020.96 1021.02 1021.06 1021.08 1021.11 1021.15 1021.22 1021.33 1021.48 1021.69 1021.93 1022.20 1022.47 1022.74 1022.97 1023.16 1023.32 1023.44 1023.53 1023.62 1023.72 1023.82 1023.95 1024.08 1024.21 1024.33 1024.43 1024.49 1024.51 1024.49 1024.44 1024.38 1024.30 1024.23 1024.15 1024.07 1023.99 1023.89 1023.77 1023.63 1023.48 1023.33 1023.19
1021.10 1021.21 1021.32 1021.41 1021.50 1021.60 1021.73 1021.88 1022.07 1022.30 1022.56 1022.84 1023.11 1023.38 1023.61 1023.80 1023.94 1024.05 1024.13 1024.19 1024.26 1024.33 1024.42 1024.52 1024.62 1024.72 1024.80 1024.85 1024.88 1024.87 1024.83 1024.77 1024.69 1024.60 1024.49 1024.36 1024.21 1024.05 1023.85 1023.65 1023.44 1023.23 1023.06
1021.26 1021.43 1021.59 1021.75 1021.90 1022.05 1022.21 1022.40 1022.60 1022.83 1023.09 1023.35 1023.61 1023.85 1024.07 1024.24 1024.37 1024.46 1024.52 1024.57 1024.61 1024.66 1024.73 1024.81 1024.89 1024.98 1025.05 1025.12 1025.15 1025.16 1025.14 1025.09 1025.02 1024.91 1024.78 1024.62 1024.42 1024.20 1023.95 1023.68 1023.42 1023.17 1022.97
1021.49 1021.71 1021.92 1022.13 1022.32 1022.50 1022.68 1022.87 1023.07 1023.28 1023.51 1023.73 1023.96 1024.17 1024.34 1024.49 1024.59 1024.67 1024.71 1024.75 1024.78 1024.82 1024.87 1024.94 1025.03 1025.12 1025.20 1025.28 1025.34 1025.37 1025.37 1025.34 1025.27 1025.17 1025.02 1024.84 1024.61 1024.34 1024.05 1023.75 1023.44 1023.16 1022.92
1021.80 1022.06 1022.32 1022.55 1022.76 1022.95 1023.12 1023.29 1023.46 1023.64 1023.81 1024.00 1024.17 1024.33 1024.47 1024.58 1024.66 1024.71 1024.75 1024.77 1024.80 1024.84 1024.90 1024.97 1025.07 1025.17 1025.27 1025.37 1025.45 1025.51 1025.53 1025.52 1025.47 1025.37 1025.22 1025.02 1024.78 1024.49 1024.17 1023.84 1023.51 1023.20 1022.93
1022.16 1022.46 1022.73 1022.97 1023.18 1023.35 1023.50 1023.64 1023.76 1023.89 1024.02 1024.15 1024.28 1024.40 1024.50 1024.58 1024.64 1024.68 1024.71 1024.73 1024.76 1024.81 1024.87 1024.96 1025.06 1025.18 1025.30 1025.42 1025.52 1025.60 1025.64 1025.65 1025.61 1025.52 1025.37 1025.18 1024.93 1024.63 1024.30 1023.95 1023.60 1023.27 1022.98
1022.50 1022.81 1023.09 1023.32 1023.51 1023.65 1023.77 1023.86 1023.95 1024.04 1024.13 1024.23 1024.32 1024.41 1024.50 1024.56 1024.61 1024.64 1024.67 1024.69 1024.73 1024.78 1024.85 1024.95 1025.06 1025.19 1025.32 1025.44 1025.56 1025.65 1025.71 1025.72 1025.69 1025.61 1025.48 1025.28 1025.04 1024.74 1024.41 1024.06 1023.70 1023.36 1023.04
Thickness
5691 5689 5688 5686 5684 5683 5681 5679 5676 5674 5672 5669 5667 5665 5663 5660 5658 5656 5653 5651 5648 5646 5644 5641 5638 5635 5633 5630 5628 5625 5623 5621 5618 5616 5615 5613 5612 5611 5610 5609 5608 5607 5606
5688 5686 5684 5683 5681 5680 5678 5675 5673 5670 5668 5665 5663 5662 5660 5658 5655 5653 5650 5648 5645 5642 5639 5637 5634 5631 5628 5625 5623 5620 5616 5614 5612 5610 5608 5606 5605 5603 5602 5601 5601 5600 5599
5685 5683 5681 5679 5678 5676 5674 5671 5669 5666 5664 5662 5660 5658 5657 5655 5652 5650 5647 5644 5641 5638 5635 5632 5629 5627 5623 5620 5617 5614 5611 5607 5605 5602 5600 5598 5597 5595 5594 5593 5593 5592 5592
5682 5680 5678 5676 5675 5673 5670 5667 5665 5662 5660 5657 5656 5655 5653 5651 5649 5647 5643 5640 5637 5634 5631 5628 5625 5622 5619 5615 5612 5609 5605 5601 5598 5595 5592 5590 5589 5587 5586 5585 5584 5584 5584
5680 5678 5676 5674 5672 5669 5667 5664 5661 5658 5656 5654 5652 5651 5649 5647 5645 5643 5639 5637 5633 5630 5627 5624 5620 5617 5614 5610 5607 5603 5599 5595 5591 5588 5585 5582 5580 5579 5578 5577 5576 5575 5575
5677 5675 5673 5671 5668 5666 5663 5660 5658 5655 5653 5651 5649 5647 5645 5643 5641 5638 5636 5633 5630 5626 5622 5619 5615 5611 5608 5604 5601 5597 5594 5589 5585 5581 5577 5575 5572 5571 5569 5568 5568 5567 5567
5674 5672 5670 5668 5665 5663 5661 5658 5655 5652 5649 5645 5642 5640 5641 5639 5637 5635 5632 5629 5625 5621 5617 5613 5609 5605 5601 5598 5594 5590 5587 5583 5579 5574 5571 5567 5564 5562 5561 5559 5558 5558 5558
5669 5668 5666 5665 5662 5660 5658 5655 5651 5648 5645 5641 5637 5634 5633 5634 5632 5631 5627 5623 5620 5615 5611 5607 5602 5598 5594 5590 5587 5583 5579 5575 5571 5567 5563 5559 5556 5554 5552 5550 5549 5549 5548
5663 5663 5662 5660 5659 5657 5655 5652 5648 5644 5641 5638 5634 5629 5626 5627 5626 5625 5620 5616 5612 5608 5604 5599 5595 5591 5587 5582 5578 5574 5570 5566 5562 5558 5554 5550 5547 5544 5542 5541 5540 5539 5539
5657 5657 5656 5655 5654 5652 5650 5648 5645 5642 5638 5634 5629 5626 5624 5622 5617 5618 5614 5609 5604 5600 5596 5591 5587 5583 5578 5574 5569 5565 5560 5556 5552 5549 5546 5542 5538 5535 5533 5531 5530 5529 5528
5649 5649 5649 5648 5647 5646 5644 5642 5640 5637 5634 5631 5626 5621 5616 5612 5609 5607 5608 5603 5596 5591 5587 5582 5578 5573 5569 5564 5560 5555 5550 5545 5542 5539 5536 5533 5530 5526 5523 5520 5519 5518 5517
5640 5640 5641 5640 5639 5638 5637 5636 5633 5631 5628 5625 5622 5617 5612 5608 5604 5599 5598 5596 5590 5584 5577 5572 5567 5563 5558 5553 5549 5544 5539 5534 5530 5526 5523 5521 5519 5516 5513 5510 5508 5507 5506
5630 5631 5631 5631 5631 5630 5629 5628 5626 5623 5621 5618 5615 5611 5607 5603 5599 5594 5591 5588 5582 5575 5567 5561 5555 5551 5546 5542 5537 5532 5527 5522 5517 5514 5510 5508 5507 5504 5502 5499 5496 5495 5494
5620 5620 5621 5621 5621 5620 5620 5619 5617 5614 5612 5609 5606 5603 5599 5594 5590 5586 5582 5578 5573 5566 5557 5551 5544 5539 5534 5529 5524 5519 5514 5509 5504 5500 5498 5496 5493 5491 5490 5488 5485 5483 5482
5610 5610 5610 5610 5610 5610 5609 5608 5606 5603 5600 5598 5594 5591 5587 5582 5579 5575 5571 5567 5564 5561 5553 5542 5533 5527 5522 5517 5512 5507 5502 5497 5492 5489 5487 5484 5481 5479 5477 5475 5472 5471 5470
5598 5598 5598 5598 5598 5597 5597 5595 5593 5591 5588 5585 5581 5578 5573 5569 5565 5561 5558 5554 5551 5548 5542 5529 5521 5514 5510 5505 5501 5495 5490 5486 5482 5479 5475 5473 5470 5468 5466 5464 5462 5461 5460
5585 5586 5585 5585 5584 5584 5583 5582 5580 5578 5575 5571 5568 5564 5559 5555 5551 5547 5543 5540 5536 5532 5528 5517 5508 5502 5498 5494 5489 5485 5480 5476 5472 5469 5466 5463 5460 5458 5456 5454 5452 5452 5451
5573 5573 5572 5572 5571 5570 5570 5569 5566 5564 5561 5557 5553 5550 5545 5542 5537 5533 5529 5525 5521 5517 5514 5506 5497 5491 5487 5482 5478 5474 5470 5466 5462 5459 5456 5453 5450 5448 5446 5444 5443 5442 5441
5559 5559 5559 5558 5557 5557 5556 5554 5553 5550 5546 5543 5539 5536 5531 5528 5524 5519 5515 5511 5507 5504 5500 5494 5486 5480 5476 5472 5467 5463 5460 5456 5452 5449 5446 5443 5440 5438 5436 5434 5433 5431 5430
5546 5546 5546 5545 5544 5543 5542 5541 5539 5536 5532 5529 5526 5522 5518 5515 5511 5506 5502 5498 5494 5490 5486 5480 5474 5469 5464 5460 5456 5451 5448 5444 5442 5439 5435 5432 5430 5427 5425 5423 5421 5420 5418
5534 5533 5533 5533 5532 5531 5529 5527 5525 5522 5519 5515 5512 5509 5506 5503 5500 5495 5491 5486 5482 5477 5472 5468 5462 5457 5452 5448 5443 5439 5435 5432 5430 5426 5423 5422 5420 5417 5415 5412 5410 5408 5406
5521 5521 5521 5521 5520 5520 5518 5515 5512 5509 5506 5502 5498 5495 5493 5490 5487 5484 5481 5477 5473 5467 5461 5456 5450 5445 5440 5436 5432 5429 5423 5420 5417 5415 5411 5410 5409 5406 5404 5401 5398 5396 5394
5509 5508 5508 5508 5508 5507 5506 5503 5500 5496 5493 5489 5486 5483 5480 5477 5474 5470 5467 5464 5461 5458 5453 5446 5440 5435 5431 5427 5422 5418 5413 5408 5404 5403 5399 5397 5396 5393 5392 5389 5386 5385 5383
5497 5496 5496 5496 5495 5495 5494 5491 5487 5484 5480 5477 5474 5471 5468 5465 5463 5459 5456 5452 5448 5444 5441 5437 5432 5427 5423 5418 5413 5408 5402 5398 5394 5392 5387 5382 5381 5379 5378 5376 5374 5372 5370
5486 5485 5485 5484 5483 5483 5482 5479 5476 5473 5469 5466 5464 5461 5459 5456 5455 5451 5446 5442 5437 5433 5431 5427 5423 5419 5414 5410 5405 5398 5392 5386 5381 5378 5374 5369 5366 5364 5363 5361 5359 5356 5353
5476 5475 5474 5472 5472 5471 5472 5469 5466 5463 5459 5456 5454 5452 5450 5448 5446 5442 5437 5432 5428 5424 5420 5416 5412 5407 5403 5398 5393 5387 5380 5372 5366 5363 5361 5355 5350 5346 5345 5345 5342 5340 5337